EHI
0 0 0 0 0 0 0 0 0 0 0 0 0 0 0 0 0 0 0 0 0 0 0 0 0 0 0 0 0 0 0 0 0 0 0 0 0 0
0 0 0 0 0 0 0 0 0 0 0 0 0 0 0 0 0 0 0 0 0 0 0 0 0 0 0 0 0 0 0 0 0 0 0 0 0 0
0 0 0 0 0 0 0 0 0 0 0 0 0 0 0 0 0 0 0 0 0 0 0 0 0 0 0 0 0 0 0 0 0 0 0 0 0 0
0 0 0 0 0 0 0 0 0 0 0 0 0 0 0 0 0 0 0 0 0 0 0 0 0 0 0 0 0 0 0 0 0 0 0 0 0 0
0 0 0 0 0 0 0 0 0 0 0 0 0 0 0 0 0 0 0 0 0 0 0 0 0 0 0 0 0 0 0 0 0 0 0 0 0 0
0 0 0 0 0 0 0 0 0 0 0 0 0 0 0 0 0 0 0 0 0 0 0 0 0 0 0 0 0 0 0 0 0 0 0 0 0 0
0 0 0 0 0 0 0 0 0 0 0 0 0 0 0 0 0 0 0 0 0 0 0 0 0 0 0 0 0 0 0 0 0 0 0 0 0 0
0 0 0 0 0 0 0 0 0 0 0 0 0 0 0 0 0 0 0 0 0 0 0 0 0 0 0 0 0 0 0 0 0 0 0 0 0 0
0 0 0 0 0 0 0 0 0 0 0 0 0 0 0 0 0 0 0 0 0 0 0 0 0 0 0 0 0 0 0 0 0 0 0 0 0 0
0 0 0 0 0 0 0 0 0 0 0 0 0 0 0 0 0 0 0 0 0 0 0 0 0 0 0 0 0 0 0 0 0 0 0 0 0 0
0 0 0 0 0 0 0 0 0 0 0 0 0 0 0 0 0 0 0 0 0 0 0 0 0 0 0 0 0 0 0 0 0 0 0 0 0 0
0 0 0 0 0 0 0 0 0 0 0 0 0 0 0 0 0 0 0 0 0 0 0 0 0 0 0 0 0 0 0 0 0 0 0 0 0 0
0 0 0 0 0 0 0 0 0 0 0 0 0 0 0 0 0 0 0 0 0 0 0 0 0 0 0 0 0 0 0 0 0 0 0 0 0 0
0 0 0 0 0 0 0 0 0 0 0 0 0 0 0 0 0 0 0 0 0 0 0 0 0 0 0 0 0 0 0 0 0 0 0 0 0 0
0 0 0 0 0 0 0 0 0 0 0 0 0 0 0 0 0 0 0 0 0 0 0 0 0 0 0 0 0 0 0 0 0 0 0 0 0 0
0 0 0 0 0 0 0 0 0 0 0 0 0 0 0 0 0 0 0 0 0 0 0 0 0 0 0 0 0 0 0 0 0 0 0 0 0 0
0 0 0 0 0 0 0 0 0 0 0 0 0 0 0 0 0 0 0 0 0 0 0 0 0 0 0 0 0 0 0 0 0 0 0 0 0 0
0 0 0 0 0 0 0 0 0 0 0 0 0 0 0 0 0 0 0 0 0 0 0 0 0 0 0 0 0 0 0 0 0 0 0 0 0 0
0 0 0 0 0 0 0 0 0 0 0 0 0 0 0 0 0 0 0 0 0 0 0 0 0 0 0 0 0 0 0 0 0 0 0 0 0 0
0 0 0 0 0 0 0 0 0 0 0 0 0 0 0 0 0 0 0 0 0 0 0 0 0 0 0 0 0 0 0 0 0 0 0 0 0 0
0 0 0 0 0 0 0 0 0 0 0 0 0 0 0 0 0 0 0 0 0 0 0 0 0 0 0 0 0 0 0 0 0 0 0 0 0 0
0 0 0 0 0 0 0 0 0 0 0 0 0 0 0 0 0 0 0 0 0 0 0 0 0 0 0 0 0 0 0 0 0 0 0 0 0 0
0 0 0 0 0 0 0 0 0 0 0 0 0 0 0 0 0 0 0 0 0 0 0 0 0 0 0 0 0 0 0 0 0 0 0 0 0 0
Wind_Speed
5 5 4 3 3 3 3 4 5 4 4 4 3 2 2 1 3 1 2 4 5 5 5 6 5 5 5 5 5 5 5 5 6 6 7 7 7 7
4 5 4 3 3 3 3 3 3 4 4 3 3 2 2 2 4 2 2 4 5 5 5 5 5 4 5 5 5 5 6 6 6 7 7 8 7 7
5 6 6 5 4 4 3 3 3 2 3 2 1 1 2 2 2 2 2 2 3 5 5 5 5 5 4 5 5 6 6 6 6 7 8 8 8 7
6 6 6 5 5 4 4 4 4 3 3 3 2 2 3 3 2 2 2 2 2 5 6 6 6 5 5 5 5 6 7 7 7 7 7 8 8 8
6 7 7 7 6 4 5 5 4 3 2 3 3 2 1 2 1 2 2 2 3 4 5 6 6 6 6 6 6 7 7 7 7 8 8 8 8 8
5 6 7 7 8 7 6 6 4 4 3 3 2 2 1 2 2 2 2 2 3 3 4 5 6 6 6 7 7 7 7 7 8 8 8 8 8 9
5 6 6 7 9 8 6 6 6 5 4 3 3 2 2 3 4 2 3 2 2 2 2 3 3 3 3 6 7 7 8 8 8 8 8 9 9 9
6 6 6 7 8 9 9 9 8 7 6 4 3 4 5 4 3 3 2 2 3 2 2 3 2 3 3 3 7 8 8 9 8 8 9 9 9 9
6 6 5 5 6 5 6 7 8 8 8 6 6 6 6 5 5 4 4 3 4 2 1 4 2 4 3 5 9 9 9 9 8 9 9 10 10 10
6 6 6 6 6 6 6 5 5 5 6 5 6 6 6 5 6 5 5 2 2 2 2 3 3 3 3 3 8 9 9 9 9 9 10 10 10 10
5 5 6 6 8 8 6 6 5 4 4 4 4 4 5 5 5 3 3 2 3 3 2 2 3 3 3 3 5 8 8 9 9 9 10 11 11 10
4 4 7 7 8 9 7 7 6 5 4 3 2 3 3 4 6 5 5 4 2 3 3 2 2 1 3 3 3 3 4 7 9 10 11 11 11 6
4 4 4 8 9 9 7 6 6 4 4 4 3 2 2 2 3 3 3 4 4 3 3 2 2 2 3 3 3 3 2 3 4 6 8 10 11 8
4 3 4 7 8 7 6 5 4 4 3 3 3 3 3 3 2 2 2 2 3 4 3 3 2 3 3 3 4 3 2 3 3 4 4 8 9 11
3 5 5 5 6 5 6 5 4 3 3 3 3 3 3 2 2 2 1 1 2 2 3 3 3 3 3 4 4 3 3 3 3 3 4 4 5 4
2 4 5 4 3 3 4 4 3 3 4 4 3 2 2 2 2 2 2 2 1 2 3 3 4 4 3 4 4 4 3 3 3 4 4 5 5 4
2 2 2 2 3 3 2 2 2 3 3 3 3 2 2 2 2 2 2 2 2 3 3 2 2 2 3 3 4 5 4 4 4 4 4 5 5 5
3 3 3 3 4 4 3 3 3 3 3 3 3 3 3 3 2 2 2 2 3 3 3 2 1 2 2 3 5 5 4 4 4 4 4 5 6 5
2 2 3 3 3 3 3 3 3 3 2 3 3 3 3 3 3 3 3 3 3 3 3 2 2 2 3 5 4 4 4 4 4 4 4 5 6 7
1 2 2 3 3 3 3 3 3 2 3 3 3 3 3 3 3 4 4 4 3 3 3 3 3 4 5 5 4 5 6 5 4 5 5 5 6 8
1 2 2 2 2 3 3 3 3 3 3 3 3 4 4 4 4 4 4 5 4 3 4 5 4 4 2 1 3 5 4 7 7 5 5 4 5 5
2 2 2 2 2 2 2 2 2 2 3 3 3 4 4 4 4 5 4 4 4 4 4 3 2 2 2 3 5 5 5 5 7 10 9 8 4 4
2 2 2 2 2 2 2 3 3 3 3 3 3 4 4 4 4 4 4 4 3 3 3 2 2 2 3 3 4 4 5 5 4 4 5 8 11 12
Wind_Direction
195 194 193 194 187 179 171 168 166 195 233 233 225 221 222 225 245 250 260 277 283 290 296 299 303 303 300 306 309 313 305 298 295 296 300 303 303 305
197 192 196 194 188 182 178 179 178 183 218 219 224 223 220 241 245 250 252 271 281 281 288 292 290 292 292 297 300 306 311 307 298 295 296 297 300 305
204 199 200 190 188 188 183 182 184 177 203 246 242 223 207 220 246 249 256 257 272 280 285 288 285 284 287 293 299 302 305 307 309 303 298 295 296 299
204 201 203 196 193 190 189 193 196 193 186 216 236 219 221 215 215 229 261 272 269 277 280 282 281 279 280 286 294 299 299 301 304 307 308 309 309 305
204 202 204 194 198 198 195 196 198 197 186 189 219 229 227 212 211 251 262 268 276 277 276 279 280 277 278 281 289 293 294 296 300 303 304 307 307 309
212 208 208 202 202 198 199 200 192 186 178 177 197 218 230 210 195 228 264 267 276 284 276 278 279 277 278 280 285 290 290 290 292 295 296 297 301 304
216 216 217 216 214 209 204 196 188 188 184 185 195 207 217 206 213 217 243 274 278 266 278 277 275 271 272 277 278 281 281 281 284 287 290 294 297 299
215 219 222 219 219 220 217 208 196 190 190 192 204 211 216 214 204 211 220 250 268 243 241 268 254 260 260 259 274 276 277 278 281 282 285 289 292 296
210 211 219 219 218 213 214 212 215 218 210 201 204 214 208 202 193 206 215 226 246 240 236 266 255 257 265 273 276 277 278 280 282 282 282 285 290 292
213 211 212 215 213 206 201 204 211 216 220 217 213 214 211 201 198 203 211 228 274 254 218 255 262 261 270 268 276 276 279 283 285 283 285 288 290 292
221 219 215 216 216 209 199 201 209 221 228 231 237 231 221 210 197 169 180 202 248 247 220 237 261 277 275 265 270 278 281 286 286 287 288 290 291 292
220 225 225 221 219 208 196 193 206 212 200 205 221 224 211 205 205 195 192 204 226 244 215 216 247 268 285 274 261 269 273 282 286 289 292 293 293 291
219 221 228 223 221 215 209 201 209 202 187 185 189 193 193 198 207 207 209 208 216 238 217 201 235 242 248 282 287 269 261 273 281 284 289 290 290 288
220 221 222 221 214 212 213 215 208 183 172 181 191 203 205 208 209 209 218 231 239 239 218 205 228 228 236 266 278 286 275 269 270 275 273 284 287 289
225 221 220 218 206 203 211 206 186 176 179 190 202 214 214 205 192 199 219 234 276 271 237 232 231 233 225 240 259 271 285 281 266 267 275 277 277 280
233 220 214 211 212 212 201 198 196 196 196 199 205 210 196 191 203 201 214 223 246 276 271 245 238 229 237 243 246 261 259 264 271 273 280 281 280 272
202 182 187 190 194 195 200 202 200 196 201 195 191 199 204 206 217 211 207 214 231 246 266 274 262 251 246 242 251 256 259 265 267 274 279 282 280 276
197 187 195 197 199 203 200 203 206 205 206 201 199 201 206 210 217 220 215 216 230 244 251 258 272 303 306 283 248 250 257 262 269 272 269 274 280 280
194 190 195 200 200 200 200 201 210 212 201 198 204 205 207 210 212 218 223 227 238 247 250 242 231 219 255 276 284 260 253 267 274 274 267 263 272 280
186 194 201 203 201 202 204 205 204 200 199 205 208 206 205 208 214 219 220 227 237 245 251 241 227 220 225 248 270 282 275 265 262 270 276 280 277 281
203 208 211 209 205 200 204 205 201 202 203 207 211 208 207 208 219 223 228 239 244 240 242 248 247 257 254 252 272 278 278 275 273 267 266 278 286 284
207 208 214 211 201 199 200 200 201 204 205 211 216 211 211 213 218 221 224 229 236 241 252 262 254 245 219 233 259 274 286 293 291 288 278 266 262 266
211 201 209 211 204 201 202 202 203 211 214 215 217 213 210 217 224 225 228 229 237 240 242 256 265 253 248 242 255 268 276 287 294 296 285 287 286 282